Location: Newark
(45.8667°N, 9.7333°E)
Time: 19:51:29
(UTC+00:00)

Transit 4A - Pass Details

Date: 28 January 2020
Orbit: 872 x 973 km, 66.8° (Epoch: 20 February)

Event Time Altitude Azimuth Distance (km) Brightness Sun altitude
Rises 04:45:04 0° 194° (SSW) 3,548 10.9 -21.4°
Reaches altitude 10° 04:47:40 10° 189° (S) 2,594 10.2 -21.0°
Maximum altitude 04:53:26 50° 115° (ESE) 1,128 8.7 -20.0°
Drops below altitude 10° 04:59:06 10° 42° (NE) 2,551 10.6 -19.0°
Sets 05:01:37 0° 37° (NE) 3,485 11.3 -18.6°
